EW5967 Weather Reports


Display with metric or nautical units.
time (UTC)temp
F
wind
direction
speed
MPH
gust
MPH
rain 1hr
in
rain 24hr
in
rain mn
in
humidity
%
barometer
mb
20260901122538 75 257 2.0 7.0 0.00 0.00 0.00 15 1007.0
20260901122039 75 261 2.0 6.0 0.00 0.00 0.00 15 1007.0
20260901121540 75 262 1.0 3.0 0.00 0.00 0.00 14 1007.0
20260901121037 75 262 1.0 3.0 0.00 0.00 0.00 14 1006.9
20260901120538 75 262 1.0 4.0 0.00 0.00 0.00 14 1006.9
20260901120036 75 262 1.0 8.0 0.00 0.00 0.00 14 1006.9
20260901115535 75 262 2.0 8.0 0.00 0.00 0.00 14 1006.8
20260901115035 75 245 1.0 5.0 0.00 0.00 0.00 14 1006.8
20260901114534 76 244 1.0 5.0 0.00 0.00 0.00 14 1006.9
20260901114032 76 240 1.0 5.0 0.00 0.00 0.00 13 1006.9
20260901113533 76 238 1.0 6.0 0.00 0.00 0.00 13 1006.9
20260901113033 77 234 2.0 6.0 0.00 0.00 0.00 13 1006.9
20260901112532 77 227 3.0 5.0 0.00 0.00 0.00 13 1006.9
20260901112033 77 227 2.0 7.0 0.00 0.00 0.00 13 1006.9
20260901111529 77 224 2.0 7.0 0.00 0.00 0.00 13 1006.8
20260901111028 77 231 3.0 7.0 0.00 0.00 0.00 13 1006.8
20260901110527 78 230 3.0 6.0 0.00 0.00 0.00 13 1006.7
20260901110027 78 226 2.0 6.0 0.00 0.00 0.00 13 1006.7
20260901105527 78 226 1.0 8.0 0.00 0.00 0.00 13 1006.7
20260901105026 78 215 3.0 8.0 0.00 0.00 0.00 13 1006.6
20260901104527 77 204 2.0 7.0 0.00 0.00 0.00 13 1006.6
20260901104029 77 169 1.0 5.0 0.00 0.00 0.00 15 1006.6
20260901103524 77 169 1.0 5.0 0.00 0.00 0.00 16 1006.6
20260901103025 77 169 2.0 5.0 0.00 0.00 0.00 16 1006.6
20260901102524 77 169 1.0 4.0 0.00 0.00 0.00 17 1006.7
20260901102023 77 169 2.0 5.0 0.00 0.00 0.00 18 1006.6
20260901101522 77 169 2.0 5.0 0.00 0.00 0.00 18 1006.5
20260901101022 78 169 3.0 6.0 0.00 0.00 0.00 19 1006.5
20260901100524 78 168 2.0 6.0 0.00 0.00 0.00 19 1006.5
20260901100018 78 166 3.0 8.0 0.00 0.00 0.00 18 1006.4
20260901095518 78 181 3.0 10.0 0.00 0.00 0.00 18 1006.6
20260901095017 79 166 4.0 10.0 0.00 0.00 0.00 18 1006.5
20260901094517 79 180 4.0 7.0 0.00 0.00 0.00 18 1006.5
20260901094017 79 179 3.0 7.0 0.00 0.00 0.00 18 1006.5
20260901093515 79 186 4.0 7.0 0.00 0.00 0.00 18 1006.4
20260901093015 79 193 3.0 8.0 0.00 0.00 0.00 18 1006.4
20260901092514 80 228 2.0 8.0 0.00 0.00 0.00 18 1006.4
20260901092013 80 218 3.0 7.0 0.00 0.00 0.00 18 1006.3
20260901091512 80 232 4.0 7.0 0.00 0.00 0.00 18 1006.1
20260901091011 80 240 4.0 8.0 0.00 0.00 0.00 18 1006.1
20260901090511 80 211 4.0 8.0 0.00 0.00 0.00 18 1006.0
20260901090017 80 219 3.0 7.0 0.00 0.00 0.00 18 1006.0
20260901085511 80 215 3.0 7.0 0.00 0.00 0.00 18 1006.0
20260901085011 80 221 3.0 8.0 0.00 0.00 0.00 18 1006.1
20260901084510 80 250 3.0 11.0 0.00 0.00 0.00 18 1006.1
20260901084010 81 223 3.0 11.0 0.00 0.00 0.00 18 1006.1
20260901083510 81 244 4.0 8.0 0.00 0.00 0.00 18 1006.1
20260901083010 81 227 4.0 10.0 0.00 0.00 0.00 18 1006.0
20260901082509 80 224 3.0 11.0 0.00 0.00 0.00 18 1006.0
20260901082009 80 221 4.0 11.0 0.00 0.00 0.00 18 1006.0
20260901081509 80 230 5.0 11.0 0.00 0.00 0.00 18 1006.0
20260901081009 80 231 4.0 7.0 0.00 0.00 0.00 18 1006.0
20260901080509 80 236 4.0 9.0 0.00 0.00 0.00 18 1006.1
20260901080009 80 239 4.0 7.0 0.00 0.00 0.00 18 1006.1
20260901075508 81 215 3.0 10.0 0.00 0.00 0.00 18 1006.2
20260901075012 81 222 3.0 10.0 0.00 0.00 0.00 18 1006.2
20260901074506 81 215 3.0 8.0 0.00 0.00 0.00 18 1006.2
20260901074009 81 220 3.0 8.0 0.00 0.00 0.00 17 1006.1
20260901073504 82 233 4.0 9.0 0.00 0.00 0.00 18 1005.9
20260901073002 82 221 3.0 9.0 0.00 0.00 0.00 17 1005.9
20260901072501 82 234 5.0 9.0 0.00 0.00 0.00 17 1005.8
20260901072101 82 232 4.0 8.0 0.00 0.00 0.00 18 1005.8
20260901071607 82 217 3.0 7.0 0.00 0.00 0.00 17 1005.8
20260901071059 82 217 4.0 11.0 0.00 0.00 0.00 17 1005.8
20260901070558 82 245 4.0 11.0 0.00 0.00 0.00 17 1005.7
20260901070058 82 273 3.0 10.0 0.00 0.00 0.00 17 1005.6
20260901065557 82 243 3.0 9.0 0.00 0.00 0.00 16 1005.6
20260901065057 82 235 4.0 8.0 0.00 0.00 0.00 16 1005.6
20260901064557 82 234 4.0 7.0 0.00 0.00 0.00 16 1005.5
20260901064059 82 248 3.0 10.0 0.00 0.00 0.00 16 1005.5
20260901063556 82 226 4.0 10.0 0.00 0.00 0.00 16 1005.5
20260901063102 82 221 3.0 8.0 0.00 0.00 0.00 16 1005.5
20260901062556 82 244 4.0 9.0 0.00 0.00 0.00 16 1005.5
20260901062055 82 241 3.0 9.0 0.00 0.00 0.00 16 1005.5
20260901061556 82 238 2.0 9.0 0.00 0.00 0.00 16 1005.5
20260901061055 83 216 5.0 13.0 0.00 0.00 0.00 16 1005.5
20260901060555 83 240 5.0 13.0 0.00 0.00 0.00 16 1005.5
20260901060054 83 252 4.0 11.0 0.00 0.00 0.00 16 1005.4
20260901055554 83 259 4.0 11.0 0.00 0.00 0.00 16 1005.3
20260901055054 83 211 3.0 9.0 0.00 0.00 0.00 18 1005.3
20260901054556 83 246 3.0 9.0 0.00 0.00 0.00 18 1005.3
20260901054058 83 237 3.0 7.0 0.00 0.00 0.00 18 1005.1
20260901053553 83 229 2.0 9.0 0.00 0.00 0.00 19 1004.9
20260901053100 83 217 4.0 9.0 0.00 0.00 0.00 20 1004.9
20260901052551 83 216 4.0 11.0 0.00 0.00 0.00 25 1004.9
20260901052051 83 176 5.0 14.0 0.00 0.00 0.00 34 1005.0
20260901051556 83 198 7.0 16.0 0.00 0.00 0.00 35 1005.0
20260901051051 83 170 6.0 18.0 0.00 0.00 0.00 34 1005.0
20260901050554 83 193 8.0 15.0 0.00 0.00 0.00 33 1005.1
20260901050051 84 188 8.0 17.0 0.00 0.00 0.00 32 1005.1
20260901045549 84 184 5.0 20.0 0.00 0.00 0.00 30 1005.0
20260901045049 84 170 9.0 20.0 0.00 0.00 0.00 30 1005.1
20260901044554 84 176 6.0 17.0 0.00 0.00 0.00 33 1005.0
20260901044049 84 168 5.0 17.0 0.00 0.00 0.00 35 1004.9
20260901043548 84 150 6.0 15.0 0.00 0.00 0.00 36 1004.9
20260901043048 84 133 8.0 15.0 0.00 0.00 0.00 36 1005.0
20260901042547 84 165 8.0 17.0 0.00 0.00 0.00 36 1005.0
20260901042046 84 133 9.0 17.0 0.00 0.00 0.00 34 1004.7
20260901041611 85 213 2.0 5.0 0.00 0.00 0.00 24 1004.8
20260901041046 85 225 0.0 3.0 0.00 0.00 0.00 21 1004.7
20260901040545 86 225 0.0 4.0 0.00 0.00 0.00 21 1004.6
20260901040106 86 225 1.0 4.0 0.00 0.00 0.00 21 1004.5
20260901035544 86 225 1.0 4.0 0.00 0.00 0.00 21 1004.5
20260901035043 86 225 2.0 4.0 0.00 0.00 0.00 21 1004.4
20260901034543 86 225 2.0 4.0 0.00 0.00 0.00 21 1004.4
20260901034043 86 224 2.0 5.0 0.00 0.00 0.00 20 1004.3
20260901033547 86 224 3.0 6.0 0.00 0.00 0.00 20 1004.2
20260901033044 86 232 3.0 8.0 0.00 0.00 0.00 20 1004.2
20260901032544 87 223 2.0 8.0 0.00 0.00 0.00 20 1004.1
20260901032044 87 216 2.0 9.0 0.00 0.00 0.00 20 1004.1
20260901031542 87 219 4.0 9.0 0.00 0.00 0.00 20 1004.1
20260901031041 87 238 4.0 8.0 0.00 0.00 0.00 20 1004.0
20260901030541 87 216 2.0 7.0 0.00 0.00 0.00 19 1003.9
20260901030041 87 180 3.0 7.0 0.00 0.00 0.00 19 1003.9
20260901025541 87 232 2.0 11.0 0.00 0.00 0.00 19 1003.9
20260901025041 87 227 5.0 11.0 0.00 0.00 0.00 19 1003.8
20260901024544 87 238 4.0 9.0 0.00 0.00 0.00 19 1003.8
20260901024041 88 223 3.0 8.0 0.00 0.00 0.00 19 1003.8
20260901023540 88 235 5.0 9.0 0.00 0.00 0.00 18 1003.8
20260901023041 88 228 3.0 9.0 0.00 0.00 0.00 18 1003.7
20260901022540 88 227 4.0 10.0 0.00 0.00 0.00 18 1003.7
20260901022040 88 215 4.0 10.0 0.00 0.00 0.00 18 1003.7
20260901021541 88 218 3.0 10.0 0.00 0.00 0.00 18 1003.7
20260901021040 88 241 3.0 10.0 0.00 0.00 0.00 18 1003.7
20260901020540 88 221 4.0 10.0 0.00 0.00 0.00 18 1003.5
20260901020042 88 235 3.0 9.0 0.00 0.00 0.00 18 1003.5
20260901015538 89 259 4.0 9.0 0.00 0.00 0.00 18 1003.5
20260901015038 89 239 5.0 9.0 0.00 0.00 0.00 18 1003.4
20260901014538 89 236 3.0 11.0 0.00 0.00 0.00 17 1003.4
20260901014038 89 212 4.0 11.0 0.00 0.00 0.00 18 1003.4
20260901013538 89 242 4.0 13.0 0.00 0.00 0.00 18 1003.4
20260901013039 89 240 4.0 13.0 0.00 0.00 0.00 17 1003.5
20260901012537 90 205 5.0 10.0 0.00 0.00 0.00 17 1003.4
20260901012037 90 200 4.0 8.0 0.00 0.00 0.00 17 1003.4
20260901011540 91 233 5.0 8.0 0.00 0.00 0.00 17 1003.5
20260901011037 91 234 4.0 13.0 0.00 0.00 0.00 17 1003.5
20260901010537 91 193 6.0 13.0 0.00 0.00 0.00 17 1003.5
20260901010051 91 258 5.0 13.0 0.00 0.00 0.00 17 1003.5
20260901005535 91 232 5.0 13.0 0.00 0.00 0.00 17 1003.5
20260901005037 91 235 7.0 15.0 0.00 0.00 0.00 16 1003.5
20260901004536 91 227 7.0 13.0 0.00 0.00 0.00 16 1003.5
20260901004035 92 236 6.0 14.0 0.00 0.00 0.00 17 1003.5
20260901003534 92 203 5.0 14.0 0.00 0.00 0.00 16 1003.5
20260901003037 92 221 5.0 10.0 0.00 0.00 0.00 16 1003.5
20260901002535 92 246 7.0 11.0 0.00 0.00 0.00 16 1003.5
20260901002034 92 238 5.0 11.0 0.00 0.00 0.00 16 1003.4
20260901001537 92 209 6.0 11.0 0.00 0.00 0.00 16 1003.5
20260901001039 92 214 7.0 12.0 0.00 0.00 0.00 16 1003.5
20260901000532 92 223 5.0 16.0 0.00 0.00 0.00 16 1003.5
20260901000032 92 236 8.0 16.0 0.00 0.00 0.00 17 1003.7
20260831235532 93 220 5.0 14.0 0.00 0.00 0.00 16 1003.5
20260831235033 93 236 6.0 14.0 0.00 0.00 0.00 16 1003.5
20260831234531 93 190 6.0 14.0 0.00 0.00 0.00 17 1003.4
20260831234032 93 210 5.0 14.0 0.00 0.00 0.00 17 1003.6
20260831233534 93 205 7.0 14.0 0.00 0.00 0.00 17 1003.5
20260831233040 93 221 7.0 14.0 0.00 0.00 0.00 16 1003.5
20260831232531 94 245 6.0 12.0 0.00 0.00 0.00 16 1003.6
20260831232031 93 225 6.0 12.0 0.00 0.00 0.00 16 1003.5
20260831231535 94 205 4.0 15.0 0.00 0.00 0.00 17 1003.6
20260831231029 94 220 7.0 15.0 0.00 0.00 0.00 16 1003.5
20260831230528 94 282 6.0 14.0 0.00 0.00 0.00 16 1003.5
20260831230027 94 216 5.0 15.0 0.00 0.00 0.00 16 1003.5
20260831225526 94 205 7.0 15.0 0.00 0.00 0.00 16 1003.6
20260831225029 94 229 5.0 10.0 0.00 0.00 0.00 17 1003.5
20260831224526 93 240 4.0 16.0 0.00 0.00 0.00 17 1003.7
20260831224024 94 213 8.0 16.0 0.00 0.00 0.00 17 1003.7
20260831223523 93 220 5.0 14.0 0.00 0.00 0.00 17 1003.8
20260831223022 93 145 5.0 14.0 0.00 0.00 0.00 18 1003.8
20260831222521 93 200 4.0 10.0 0.00 0.00 0.00 18 1004.0
20260831222019 92 196 5.0 11.0 0.00 0.00 0.00 18 1004.0
20260831221521 91 178 5.0 11.0 0.00 0.00 0.00 18 1004.1
20260831221018 91 197 5.0 16.0 0.00 0.00 0.00 18 1004.2
20260831220518 92 202 5.0 16.0 0.00 0.00 0.00 18 1004.2
20260831220018 92 167 8.0 16.0 0.00 0.00 0.00 19 1004.2
20260831215517 92 167 4.0 16.0 0.00 0.00 0.00 18 1004.2
20260831215016 91 150 5.0 16.0 0.00 0.00 0.00 18 1004.3
20260831214517 91 173 6.0 16.0 0.00 0.00 0.00 18 1004.5
20260831214016 91 157 6.0 16.0 0.00 0.00 0.00 18 1004.5
20260831213516 92 149 9.0 14.0 0.00 0.00 0.00 18 1004.5
20260831213017 91 210 7.0 15.0 0.00 0.00 0.00 19 1004.5
20260831212515 91 134 6.0 15.0 0.00 0.00 0.00 19 1004.5
20260831212015 91 94 8.0 15.0 0.00 0.00 0.00 18 1004.6
20260831211515 91 185 7.0 16.0 0.00 0.00 0.00 19 1004.8
20260831211015 91 138 10.0 16.0 0.00 0.00 0.00 19 1004.8
20260831210614 91 205 9.0 17.0 0.00 0.00 0.00 19 1004.9
20260831210018 91 190 5.0 17.0 0.00 0.00 0.00 20 1005.0
20260831205513 92 144 8.0 17.0 0.00 0.00 0.00 19 1005.1
20260831205014 92 26 5.0 16.0 0.00 0.00 0.00 19 1005.1
20260831204513 92 134 8.0 17.0 0.00 0.00 0.00 19 1005.4
20260831204012 91 176 6.0 16.0 0.00 0.00 0.00 20 1005.3
20260831203512 91 109 8.0 16.0 0.00 0.00 0.00 20 1005.3
20260831203012 91 137 7.0 16.0 0.00 0.00 0.00 20 1005.5
20260831202510 91 180 6.0 12.0 0.00 0.00 0.00 19 1005.5
20260831202010 92 171 4.0 21.0 0.00 0.00 0.00 20 1005.6
20260831201520 92 142 9.0 21.0 0.00 0.00 0.00 20 1005.7
20260831201010 92 159 5.0 16.0 0.00 0.00 0.00 20 1005.7
20260831200509 91 190 6.0 18.0 0.00 0.00 0.00 20 1005.8
20260831200009 90 126 8.0 17.0 0.00 0.00 0.00 23 1005.8
20260831195507 90 147 7.0 17.0 0.00 0.00 0.00 23 1005.9
20260831195006 90 151 11.0 17.0 0.00 0.00 0.00 22 1006.0
20260831194506 90 176 4.0 15.0 0.00 0.00 0.00 22 1006.0
20260831194006 90 136 5.0 18.0 0.00 0.00 0.00 23 1006.1
20260831193506 90 173 7.0 19.0 0.00 0.00 0.00 22 1006.3
20260831193006 90 142 6.0 19.0 0.00 0.00 0.00 22 1006.3
20260831192503 90 195 7.0 17.0 0.00 0.00 0.00 22 1006.3
20260831192002 89 180 8.0 16.0 0.00 0.00 0.00 23 1006.4
20260831191502 89 207 9.0 16.0 0.00 0.00 0.00 23 1006.5
20260831191004 89 138 9.0 17.0 0.00 0.00 0.00 23 1006.5
20260831190503 90 186 8.0 16.0 0.00 0.00 0.00 23 1006.6
20260831190001 89 183 7.0 15.0 0.00 0.00 0.00 23 1006.6
20260831185500 89 168 10.0 18.0 0.00 0.00 0.00 23 1006.7
20260831185104 89 160 9.0 20.0 0.00 0.00 0.00 24 1006.7
20260831184600 88 155 8.0 20.0 0.00 0.00 0.00 24 1006.7
20260831184102 89 164 8.0 15.0 0.00 0.00 0.00 24 1006.7
20260831183559 89 182 5.0 12.0 0.00 0.00 0.00 24 1006.7
20260831183108 89 160 6.0 17.0 0.00 0.00 0.00 24 1006.8
20260831182558 88 134 8.0 17.0 0.00 0.00 0.00 24 1006.8
20260831182100 88 80 7.0 13.0 0.00 0.00 0.00 24 1006.8
20260831181604 88 133 8.0 16.0 0.00 0.00 0.00 24 1006.8
20260831181056 88 48 6.0 16.0 0.00 0.00 0.00 25 1006.8
20260831180556 88 130 4.0 12.0 0.00 0.00 0.00 25 1006.8
20260831180111 88 135 4.0 13.0 0.00 0.00 0.00 25 1006.9
20260831175554 87 136 4.0 15.0 0.00 0.00 0.00 25 1006.9
20260831175057 87 124 7.0 15.0 0.00 0.00 0.00 25 1007.0
20260831174553 87 100 5.0 14.0 0.00 0.00 0.00 25 1007.0
20260831174055 87 115 3.0 12.0 0.00 0.00 0.00 25 1007.0
20260831173552 87 142 5.0 12.0 0.00 0.00 0.00 25 1007.1
20260831173052 87 114 4.0 10.0 0.00 0.00 0.00 25 1007.2
20260831172550 87 139 4.0 10.0 0.00 0.00 0.00 25 1007.2
20260831172049 86 139 3.0 8.0 0.00 0.00 0.00 26 1007.2
20260831171552 86 119 2.0 10.0 0.00 0.00 0.00 26 1007.2
20260831171048 86 139 3.0 10.0 0.00 0.00 0.00 26 1007.2
20260831170548 86 150 2.0 6.0 0.00 0.00 0.00 26 1007.1
20260831170046 85 170 2.0 9.0 0.00 0.00 0.00 26 1007.2
20260831165544 85 157 3.0 9.0 0.00 0.00 0.00 27 1007.2
20260831165043 84 117 2.0 8.0 0.00 0.00 0.00 27 1007.1
20260831164548 85 134 3.0 8.0 0.00 0.00 0.00 27 1007.1
20260831164042 84 22 0.0 5.0 0.00 0.00 0.00 29 1007.1
20260831163541 83 9 1.0 6.0 0.00 0.00 0.00 28 1007.0
20260831163044 83 88 3.0 6.0 0.00 0.00 0.00 29 1007.0
20260831162541 83 62 1.0 7.0 0.00 0.00 0.00 29 1007.0
20260831162039 83 54 3.0 8.0 0.00 0.00 0.00 29 1007.0
20260831161548 82 284 1.0 4.0 0.00 0.00 0.00 30 1007.0
20260831161037 82 285 1.0 4.0 0.00 0.00 0.00 30 1007.0
20260831160537 82 285 1.0 4.0 0.00 0.00 0.00 30 1006.9
20260831160038 81 285 1.0 4.0 0.00 0.00 0.00 31 1006.9
20260831155537 81 286 2.0 4.0 0.00 0.00 0.00 31 1006.9
20260831155037 81 285 1.0 5.0 0.00 0.00 0.00 30 1007.0
20260831154539 80 285 2.0 5.0 0.00 0.00 0.00 31 1007.0
20260831154037 81 283 2.0 4.0 0.00 0.00 0.00 30 1006.9
20260831153535 81 281 2.0 5.0 0.00 0.00 0.00 30 1006.9
20260831153035 81 281 1.0 4.0 0.00 0.00 0.00 31 1006.7
20260831152538 80 281 1.0 4.0 0.00 0.00 0.00 31 1006.7
20260831152033 80 281 0.0 4.0 0.00 0.00 0.00 31 1006.7
20260831151533 80 281 1.0 3.0 0.00 0.00 0.00 31 1006.7
20260831151035 80 281 0.0 4.0 0.00 0.00 0.00 32 1006.6
20260831150533 80 281 2.0 4.0 0.00 0.00 0.00 31 1006.6
20260831150032 79 281 1.0 7.0 0.00 0.00 0.00 31 1006.5
20260831145531 79 279 4.0 7.0 0.00 0.00 0.00 31 1006.4
20260831145030 79 271 4.0 7.0 0.00 0.00 0.00 31 1006.4
20260831144529 79 252 2.0 4.0 0.00 0.00 0.00 32 1006.3
20260831144029 79 250 2.0 4.0 0.00 0.00 0.00 32 1006.2
20260831143529 78 250 1.0 3.0 0.00 0.00 0.00 33 1006.1
20260831143029 78 249 0.0 3.0 0.00 0.00 0.00 33 1006.1
20260831142529 78 249 0.0 3.0 0.00 0.00 0.00 33 1006.1
20260831142026 78 249 0.0 2.0 0.00 0.00 0.00 34 1006.0
20260831141526 77 249 0.0 2.0 0.00 0.00 0.00 34 1005.9
20260831141025 77 249 0.0 2.0 0.00 0.00 0.00 35 1005.8
20260831140525 77 249 1.0 2.0 0.00 0.00 0.00 35 1005.7
20260831140024 77 249 0.0 2.0 0.00 0.00 0.00 35 1005.6
20260831135525 76 249 0.0 2.0 0.00 0.00 0.00 36 1005.5
20260831135024 76 249 0.0 1.0 0.00 0.00 0.00 35 1005.4
20260831134523 75 249 0.0 2.0 0.00 0.00 0.00 36 1005.5
20260831134022 75 249 0.0 2.0 0.00 0.00 0.00 36 1005.4
20260831133521 75 249 0.0 2.0 0.00 0.00 0.00 37 1005.3
20260831133027 75 249 0.0 2.0 0.00 0.00 0.00 37 1005.2
20260831132520 74 249 1.0 2.0 0.00 0.00 0.00 38 1005.2
20260831132020 75 249 0.0 2.0 0.00 0.00 0.00 37 1005.1
20260831131518 75 249 0.0 1.0 0.00 0.00 0.00 37 1005.1
20260831131020 75 249 0.0 2.0 0.00 0.00 0.00 36 1005.0
20260831130517 75 249 0.0 3.0 0.00 0.00 0.00 36 1005.0
20260831130016 75 249 0.0 3.0 0.00 0.00 0.00 36 1004.9
20260831125517 75 249 1.0 3.0 0.00 0.00 0.00 35 1005.0
20260831125016 75 249 0.0 2.0 0.00 0.00 0.00 35 1005.0
20260831124519 76 249 0.0 2.0 0.00 0.00 0.00 33 1005.0
20260831124014 76 249 0.0 1.0 0.00 0.00 0.00 31 1004.9
20260831123513 76 249 0.0 2.0 0.00 0.00 0.00 31 1004.9
20260831123017 76 249 0.0 1.0 0.00 0.00 0.00 31 1004.7